Location: Beneden-Haastrecht
(52.0012°N, 4.7557°E)
Time: 04:07:33
(UTC+00:00)

Geosat - Pass Details

Date: 24 October 2020
Orbit: 763 x 766 km, 108.0° (Epoch: 25 November)

Event Time Altitude Azimuth Distance (km) Brightness Sun altitude
Exits shadow 19:17:11 29° 17° (NNE) 1,381 5.2 -26.6°
Maximum altitude 19:19:41 62° 307° (NW) 860 4.4 -27.0°
Drops below altitude 10° 19:24:37 10° 227° (SW) 2,302 6.8 -27.7°
Sets 19:26:55 0° 225° (SW) 3,225 7.6 -28.1°
